sat.trackr.live / text

‹ back to catalog

STARLINK-35810

NORAD 66575 · 2025-268U

PAYLOAD ACTIVE UNKNOWN

§ Identity

Operator
Country
US
Launch date
2025-11-21
Launch site
AFETR
Launch vehicle
Mass (kg)
RCS (m²)

Purposes: comms

External: N2YO · Heavens-Above · Gunter

§ Orbital elements

Epoch: 2026-09-19T12:46:06.460608Z

Period
94.27 min
Inclination
43.0054°
Eccentricity
0.0001738
Mean motion
15.27595916 rev/d
Perigee alt
481.8 km
Apogee alt
484.2 km
Semi-major
6,861.1 km
B*
2.9664e-4
RAAN
332.5028°
Arg perigee
259.7367°
Mean anomaly
100.3289°
Rev number
4,760

§ Raw data

STARLINK-358101 66575U 25268U   26262.53201922  .00007913  00000+0  29664-3 0  99932 66575  43.0054 332.5028 0001738 259.7367 100.3289 15.27595916 47608

JSON: /api/v1/satellites/66575 · /tle

For live sub-satellite position, see the globe view (requires WebGL).

§ Visibility from observer

Set your observer location to see the next 7 days of passes ≥ 10°. The values pass through the URL so the page stays shareable.

No JS? Fill the form by hand. The geolocation button needs JavaScript.